Location: Chippewa Lake
(41.0698°N, 81.9010°W)
Time: 05:42:56
(UTC+00:00)

SL-8 Rocket - Pass Details

Date: 29 September 2021
Orbit: 958 x 990 km, 82.9° (Epoch: 17 October)

Event Time Altitude Azimuth Distance (km) Brightness Sun altitude
Rises 10:49:49 0° 4° (N) 3,707 7.1 -7.0°
Reaches altitude 10° 10:52:57 10° 19° (NNE) 2,751 6.7 -6.4°
Maximum altitude 10:57:52 23° 70° (ENE) 1,945 6.7 -5.5°
Drops below altitude 10° 11:02:42 10° 121° (ESE) 2,722 7.4 -4.6°
Sets 11:05:46 0° 136° (SE) 3,660 7.7 -4.0°
